Voltar ao catálogo

STARLINK-11239

AtivoComunicaçõesVLEO
NORAD 60924·PAYLOAD·🇺🇸 United States

Lançado Aug 31, 2024 de Vandenberg Space Force Base

Loading…

Próximas Passagens (próximas 24 horas)

TLE

AtualizadoSource: CelesTrak SupGP

Época: Sep 14, 2026, 22:51 UTC

1 60924C 24155A   26257.95256944 -.00048511  00000+0 -39958-3 0  2578
2 60924  53.1561 128.6181 0001245  90.8137 260.5188 15.69734814    10

Acompanhe STARLINK-11239 em tempo real com AllMySat

Download on the App Store